Weather History for Craig, CO

Change the Weather History Date:

Friday, February 1, 2013

  Actual Average Record
Temperature  
Mean Temperature 25 °F 18 °F  
Max Temperature 37 °F 31 °F 50 °F (2003)
Min Temperature 13 °F 4 °F -29 °F (2011)
Degree Days  
Heating Degree Days 40 47  
Month to date heating degree days 40 47  
Since 1 July heating degree days 5014 5131  
Cooling Degree Days 0 0  
Month to date cooling degree days 0 0  
Year to date cooling degree days 0 0  
Moisture  
Dew Point 20 °F    
Average Humidity 72    
Maximum Humidity 88    
Minimum Humidity 56    
Precipitation  
Precipitation 0.00 in 0.03 in 0.06 in (1999)
Month to date precipitation 0.00 0.03  
Year to date precipitation 0.71 0.91  
Sea Level Pressure  
Sea Level Pressure 30.32 in    
Wind  
Wind Speed 9 mph (SW)    
Max Wind Speed 21 mph    
Max Gust Speed 25 mph    
Visibility 10 miles    
Events      
T = Trace of Precipitation, MM = Missing Value Source: NWS Daily Summary

Daily Weather History Graph

Daily Weather History Graph

Search for Another Location

Airport:

Trip Planner

Search our weather history database for the weather conditions in past years. The results will help you decide how hot, cold, wet, or windy it might be!

Date:

Astronomy

Feb. 01, 2013 Rise Set
Actual Time 7:19 AM MST 5:28 PM MST
Civil Twilight 6:50 AM MST 5:57 PM MST
Nautical Twilight 6:17 AM MST 6:30 PM MST
Astronomical Twilight 5:45 AM MST 7:02 PM MST
Moon 11:40 PM MST (2/1) 9:52 AM MST (2/1)
Length of Visible Light 11h 07m
Length of Day
10h 09m
Waning Gibbous, 69% of the Moon is Illuminated
Feb 1
Waning Gibbous
Feb 3
Last Quarter
Feb 10
New
Feb 17
First Quarter
Feb 25
Full

Hourly Weather History & Observations

Time (MST) Temp. Windchill Dew Point Humidity Pressure Visibility Wind Dir Wind Speed Gust Speed Precip Events Conditions
12:53 AM 26.1 °F 21.9 °F 19.9 °F 78% 30.30 in 10.0 mi SE 3.5 mph - N/A   Overcast
1:53 AM 25.0 °F - 21.0 °F 85% 30.31 in 10.0 mi Calm Calm - N/A   Overcast
2:53 AM 27.0 °F - 19.9 °F 75% 30.30 in 10.0 mi Calm Calm - N/A   Overcast
3:53 AM 26.1 °F - 21.0 °F 81% 30.30 in 10.0 mi Calm Calm - N/A   Overcast
4:53 AM 30.9 °F 21.2 °F 21.0 °F 67% 30.28 in 10.0 mi SSW 12.7 mph - N/A   Overcast
5:53 AM 30.9 °F 21.2 °F 21.0 °F 67% 30.28 in 10.0 mi SW 12.7 mph - N/A   Overcast
6:53 AM 30.9 °F 20.2 °F 21.0 °F 67% 30.27 in 10.0 mi SSW 15.0 mph - N/A   Overcast
7:53 AM 32.0 °F 21.2 °F 21.0 °F 64% 30.29 in 10.0 mi SW 16.1 mph - N/A   Overcast
8:53 AM 32.0 °F 23.6 °F 21.9 °F 66% 30.29 in 10.0 mi SW 10.4 mph - N/A   Overcast
9:53 AM 33.1 °F 23.0 °F 21.9 °F 64% 30.28 in 10.0 mi SSW 15.0 mph - N/A   Overcast
10:53 AM 34.0 °F 24.2 °F 21.9 °F 61% 30.29 in 10.0 mi SW 15.0 mph - N/A   Overcast
11:53 AM 34.0 °F 23.4 °F 23.0 °F 64% 30.28 in 10.0 mi SSW 17.3 mph 23.0 mph N/A   Overcast
12:53 PM 36.0 °F 26.7 °F 21.9 °F 57% 30.26 in 10.0 mi WSW 15.0 mph - N/A   Overcast
1:53 PM 36.0 °F 26.3 °F 23.0 °F 59% 30.27 in 10.0 mi West 16.1 mph - N/A   Overcast
2:53 PM 35.1 °F 26.4 °F 24.1 °F 64% 30.28 in 10.0 mi West 12.7 mph - N/A   Overcast
3:53 PM 35.1 °F 25.9 °F 21.9 °F 59% 30.29 in 10.0 mi WSW 13.8 mph - N/A   Overcast
4:53 PM 32.0 °F 21.6 °F 21.0 °F 64% 30.28 in 10.0 mi WSW 15.0 mph - N/A   Scattered Clouds
5:53 PM 32.0 °F 22.5 °F 21.0 °F 64% 30.30 in 10.0 mi WSW 12.7 mph - N/A   Overcast
6:53 PM 28.9 °F 23.9 °F 19.9 °F 69% 30.35 in 10.0 mi WNW 4.6 mph - N/A   Overcast
7:53 PM 26.1 °F 18.4 °F 18.0 °F 71% 30.38 in 10.0 mi NW 6.9 mph - N/A   Mostly Cloudy
8:53 PM 26.1 °F 21.9 °F 17.1 °F 69% 30.40 in 10.0 mi WSW 3.5 mph - N/A   Partly Cloudy
9:53 PM 21.0 °F - 14.0 °F 74% 30.44 in 10.0 mi Calm Calm - N/A   Clear
10:53 PM 17.1 °F - 10.9 °F 77% 30.47 in 10.0 mi Calm Calm - N/A   Clear
11:53 PM 16.0 °F - 10.0 °F 77% 30.50 in 10.0 mi Calm Calm - N/A   Clear